Regional Weather Roundup
Issued by NWS

Home | Current Version | Previous Version | Text Only | Print | Product List | Glossary On
Versions: 1 2 3 4 5 6 7 8 9 10 11 12 13 14 15 16 17 18 19 20 21 22 23 24 25 26 27 28 29 30 31 32 33 34 35 36 37 38 39 40 41 42 43 44 45 46 47 48 49 50
000
ASUS43 KLSX 222007
RWRMO

WEATHER SUMMARY FOR MISSOURI
NATIONAL WEATHER SERVICE SPRINGFIELD MO
300 PM CDT FRI MAY 22 2015

NOTE: "FAIR" INDICATES FEW OR NO CLOUDS BELOW 12,000 FEET WITH NO
       SIGNIFICANT WEATHER AND/OR OBSTRUCTIONS TO VISIBILITY.
       CURRENT SKY AND/OR WEATHER CONDITIONS ARE NOT AVAILABLE FOR
       CHILLICOTHE AND FARMINGTON.

MOZ001>031-035>038-043-044-053-054-222100-
...NORTHERN AND WESTERN MISSOURI...

CITY           SKY/WX    TMP DP  RH WIND       PRES   REMARKS
KANSAS CTY INT CLOUDY    64  47  53 SE7       30.23F
KANSAS C DTWN  CLOUDY    68  46  45 E8        30.22F
LEE`S SUMMIT   CLOUDY    66  48  52 E7        30.24F
ST JOSEPH      CLOUDY    64  48  56 CALM      30.25F
CHILLICOTHE      N/A     67  52  58 SW5       30.26F
KIRKSVILLE     CLOUDY    69  54  58 SW7       30.25S

$$
MOZ066>068-077>081-088>096-101>105-222100-
...SOUTHWEST MISSOURI...

CITY           SKY/WX    TMP DP  RH WIND       PRES   REMARKS
SPRINGFIELD    CLOUDY    66  46  48 SE3       30.25F
JOPLIN         CLOUDY    65  49  56 E9        30.22F

$$
MOZ032>034-039>042-045>050-055>058-069>072-222100-
...CENTRAL MISSOURI...

CITY           SKY/WX    TMP DP  RH WIND       PRES   REMARKS
COLUMBIA       CLOUDY    69  55  60 SW13      30.26F
JEFFERSON CITY CLOUDY    69  51  52 SW8       30.26F
ROLLA          PTSUNNY   67  51  56 S5        30.26F
SEDALIA        PTSUNNY   68  50  52 S5        30.27F
WHITEMAN AFB   PTSUNNY   67  49  53 S3        30.24F
WARRENSBURG    PTSUNNY   66  48  52 SE5       30.25F
OSAGE BEACH    PTSUNNY   70  46  43 SE5       30.26F

$$
MOZ051-052-059>065-222100-
...EAST CENTRAL MISSOURI...

CITY           SKY/WX    TMP DP  RH WIND       PRES   REMARKS
ST LOUIS INTL  CLOUDY    74  50  42 W8        30.24F
SPIRIT OF STL  CLOUDY    74  49  41 W7        30.23F
ST CHARLES     CLOUDY    74  49  41 SW7       30.23F

$$
MOZ072>076-082>087-097>100-106>115-222100-
...SOUTH CENTRAL AND SOUTHEAST MISSOURI...

CITY           SKY/WX    TMP DP  RH WIND       PRES   REMARKS
CAPE GIRARDEAU MOSUNNY   70  51  51 S3        30.27F
FARMINGTON     CLOUDY    70  50  49 S9        30.30F
POPLAR BLUFF   PTSUNNY   70  47  43 VRB3      30.28F
WEST PLAINS    CLOUDY    65  47  52 E7        30.28F

$$



USA.gov is the U.S. government's official web portal to all federal, state and local government web resources and services.